Probability
0 0 0 0 0 0 0 0 0 0 0 0 0 0 0 0 0 0 0 0 0 0 0 0 0 0 0 0 0 0 0 0 0 0 0 0 0 0 0 0 0 0 0
0 0 0 0 0 0 0 0 0 0 0 0 0 0 0 0 0 0 0 0 0 0 0 0 0 0 0 0 0 0 0 0 0 0 0 0 0 0 0 0 0 0 0
0 0 0 0 0 0 0 0 0 0 0 0 0 0 0 0 0 0 0 0 0 0 0 0 0 0 0 0 0 0 0 0 0 0 0 0 0 0 0 0 0 0 0
0 0 0 0 0 0 0 0 0 0 0 0 0 0 0 0 0 0 0 0 0 0 0 0 0 0 0 0 0 0 0 0 0 0 0 0 0 0 0 0 0 0 0
0 0 0 0 0 0 0 0 0 0 0 0 0 0 0 0 0 0 0 0 0 0 0 0 0 0 0 0 0 0 0 0 0 0 0 0 0 0 0 0 0 0 0
0 0 0 0 0 0 0 0 0 0 0 0 0 0 0 0 0 0 0 0 0 0 0 0 0 0 0 0 0 0 0 0 0 0 0 0 0 0 0 0 0 0 0
0 0 0 0 0 0 0 0 0 0 0 0 0 0 0 0 0 0 0 0 0 0 0 0 0 0 0 0 0 0 0 0 0 0 0 0 0 0 0 0 0 0 0
0 0 0 0 0 0 0 0 0 0 0 0 0 0 0 0 0 0 0 0 0 0 0 0 0 0 0 0 0 0 0 0 0 0 0 0 0 0 0 0 0 0 0
0 0 0 0 0 0 0 0 0 0 0 0 0 0 0 0 0 0 0 0 0 0 0 0 0 0 0 0 0 0 0 0 0 0 0 0 0 0 0 0 0 0 0
0 0 0 0 0 0 0 0 0 0 0 0 0 0 0 0 0 0 0 0 0 0 0 0 0 0 0 0 0 0 0 0 0 0 0 0 0 0 0 0 0 0 0
0 0 0 0 0 0 0 0 0 0 0 0 0 0 0 0 0 0 0 0 0 0 0 0 0 0 0 0 0 0 0 0 0 0 0 0 0 0 0 0 0 0 0
0 0 0 0 0 0 0 0 0 0 0 0 0 0 0 0 0 0 0 0 0 0 0 0 0 0 0 0 0 0 0 0 0 0 0 0 0 0 0 0 0 0 0
0 0 0 0 0 0 0 0 0 0 0 0 0 0 0 0 0 0 0 0 0 0 0 0 0 0 0 0 0 0 0 0 0 0 0 0 0 0 0 0 0 0 0
0 0 0 0 0 0 0 0 0 0 0 0 0 0 0 0 0 0 0 0 0 0 0 0 0 0 0 0 0 0 0 0 0 0 0 0 0 0 0 0 0 0 0
0 0 0 0 0 0 0 0 0 0 0 0 0 0 0 0 0 0 0 0 0 0 0 0 0 0 0 0 0 0 0 0 0 0 0 0 0 0 0 0 0 0 0
0 0 0 0 0 0 0 0 0 0 0 0 0 0 0 0 0 0 0 0 0 0 0 0 0 0 0 0 0 0 0 0 0 0 0 0 0 0 0 0 0 0 0
0 0 0 0 0 0 0 0 0 0 0 0 0 0 0 0 0 0 0 0 0 0 0 0 0 0 0 0 0 0 0 0 0 0 0 0 0 0 0 0 0 0 0
0 0 0 0 0 0 0 0 0 0 0 0 0 0 0 0 0 0 0 0 0 0 0 0 0 0 0 0 0 0 0 0 0 0 0 0 0 0 0 0 0 0 0
0 0 0 0 0 0 0 0 0 0 0 0 0 0 0 0 0 0 0 0 0 0 0 0 0 0 0 0 0 0 0 0 0 0 0 0 0 0 0 0 0 0 0
0 0 0 0 0 0 0 0 0 0 0 0 0 0 0 0 0 0 0 0 0 0 0 0 0 0 0 0 0 0 0 0 0 0 0 0 0 0 0 0 0 0 0
0 0 0 0 0 0 0 0 0 0 0 0 0 0 0 0 0 0 0 0 0 0 0 0 0 0 0 0 0 0 0 0 0 0 0 0 0 0 0 0 0 0 0
0 0 0 0 0 0 0 0 0 0 0 0 0 0 0 0 0 0 0 0 0 0 0 0 0 0 0 0 0 0 0 0 0 0 0 0 0 0 0 0 0 0 0
0 0 0 0 0 0 0 0 0 0 0 0 0 0 0 0 0 0 0 0 0 0 0 0 0 0 0 0 0 0 0 0 0 0 0 0 0 0 0 0 0 0 0
0 0 0 0 0 0 0 0 0 0 0 0 0 0 0 0 0 0 0 0 0 0 0 0 0 0 0 0 0 0 0 0 0 0 0 0 0 0 0 0 0 0 0
0 0 0 0 0 0 0 0 0 0 0 0 0 0 0 0 0 0 0 0 0 0 0 0 0 0 0 0 0 0 0 0 0 0 0 0 0 0 0 0 0 0 0
0 0 0 0 0 0 0 0 0 0 0 0 0 0 0 0 0 0 0 0 0 0 0 0 0 0 0 0 0 0 0 0 0 0 0 0 0 0 0 0 0 0 0
Wind_Speed
6 6 5 4 3 3 3 4 3 4 4 4 3 4 4 4 4 2 3 9 11 11 10 10 9 9 9 9 9 9 10 11 11 11 12 13 14 15 15 15 14 14 15
7 6 6 5 4 3 3 3 3 3 3 3 3 4 4 3 3 4 4 6 12 13 13 11 10 10 9 9 8 11 12 13 15 14 14 16 17 17 15 13 16 16 16
8 7 6 5 4 4 4 4 3 3 3 2 2 3 3 3 3 4 4 4 6 12 14 14 13 12 10 10 10 10 12 13 11 12 16 16 15 17 17 16 16 17 17
9 7 6 5 5 4 4 4 3 3 2 2 2 3 3 3 4 5 5 6 5 6 11 17 15 13 12 12 13 13 13 12 13 15 16 14 14 17 20 19 18 17 17
9 8 7 6 7 5 4 4 2 2 2 2 3 4 4 4 4 5 6 6 7 6 5 11 15 14 13 13 14 13 14 15 16 16 15 15 17 18 17 16 15 15 18
10 9 7 7 7 5 5 4 3 3 2 1 2 5 5 4 4 4 5 4 5 5 5 5 5 7 13 15 14 14 16 16 16 16 17 17 17 15 15 16 17 17 19
11 10 8 8 8 7 7 6 4 3 2 1 3 3 4 4 5 5 4 4 5 5 5 4 3 3 5 13 15 16 17 16 16 16 16 16 16 17 18 17 17 17 18
12 11 11 10 9 7 7 7 6 4 2 1 3 3 2 1 2 2 2 4 4 4 5 5 4 4 4 4 9 15 17 17 18 19 19 19 19 20 19 19 18 18 18
14 13 12 10 10 9 8 8 6 6 5 2 2 4 4 3 1 1 1 2 4 4 4 4 3 3 3 3 5 7 14 16 18 20 21 22 22 22 22 21 21 21 20
14 14 13 12 10 8 7 6 5 4 6 4 2 2 3 4 4 1 1 2 3 3 4 4 3 2 1 2 2 6 11 14 17 19 19 19 21 22 23 23 22 22 22
10 11 12 11 10 9 8 8 7 5 4 5 4 3 2 3 2 2 1 2 3 3 4 6 5 3 1 2 1 4 10 14 15 16 18 19 20 21 21 22 22 22 23
9 12 13 12 11 10 9 9 7 7 5 4 4 4 5 5 4 3 3 2 2 3 3 3 3 1 1 2 4 7 11 13 15 17 18 19 19 20 20 20 21 22 22
12 14 14 12 11 11 10 8 7 6 6 5 5 4 3 3 4 4 3 2 1 3 3 1 1 2 2 2 2 6 8 11 14 15 17 17 18 18 19 20 21 21 22
12 14 14 13 13 13 11 10 7 5 5 6 6 5 3 3 3 3 4 4 2 2 3 2 0 1 1 2 3 5 3 10 13 14 15 16 17 18 19 20 21 22 22
10 14 17 15 14 14 14 13 9 9 8 6 6 5 4 3 3 3 3 3 4 2 3 3 3 2 1 1 3 2 3 11 15 15 16 17 18 19 20 21 22 23 24
15 17 17 16 15 14 13 13 10 10 10 8 7 8 6 4 4 4 3 2 2 2 2 2 2 1 2 3 8 8 9 14 13 17 18 19 19 20 22 23 24 24 25
16 18 19 18 18 17 16 14 12 13 13 11 10 9 8 8 6 5 4 3 2 2 2 3 4 5 6 6 8 8 10 9 10 17 20 21 21 22 23 23 24 25 26
17 18 19 19 19 19 19 18 16 15 15 14 14 12 11 9 8 7 6 5 4 4 2 1 3 3 4 6 9 10 9 9 9 15 19 22 22 22 22 24 25 26 27
17 18 19 21 21 21 21 21 19 17 16 15 14 14 13 13 11 9 8 7 6 5 4 3 2 3 4 5 7 9 9 8 7 10 15 15 16 18 21 25 26 27 28
19 19 21 21 20 20 21 20 19 17 16 14 13 14 14 15 14 12 9 8 7 7 6 4 3 4 4 5 5 7 8 7 6 7 9 8 11 15 19 23 24 26 27
20 21 20 20 20 19 19 21 20 19 18 16 14 13 13 15 18 16 12 10 9 7 5 4 3 2 2 3 4 7 10 9 7 4 5 5 7 8 11 15 17 22 26
17 18 21 21 20 18 27 33 25 19 19 18 16 14 13 15 18 21 20 17 15 11 7 5 4 3 2 3 5 6 8 10 8 5 9 11 10 10 10 10 18 25 30
16 18 19 19 20 20 29 33 30 18 17 17 16 15 12 12 14 14 18 19 18 19 16 12 6 4 1 2 5 6 6 9 8 9 10 11 10 11 10 11 23 29 32
13 16 17 18 18 20 30 32 29 16 16 17 17 17 16 16 16 17 15 13 10 9 8 6 4 3 3 3 4 4 6 7 8 7 7 11 10 11 10 11 24 32 33
9 12 14 15 16 18 28 31 27 14 14 15 15 15 15 15 22 24 15 12 10 8 9 11 10 8 6 7 8 5 4 5 7 6 6 7 9 11 11 10 13 25 31
7 8 8 10 14 15 24 32 29 13 13 12 12 14 18 19 25 27 17 14 12 10 8 6 3 0 1 3 8 4 1 2 5 6 1 4 8 10 10 5 7 11 15
Wind_Direction
168 162 164 164 163 151 146 144 139 122 110 97 83 74 60 36 19 18 17 21 28 25 24 28 30 32 30 30 27 28 27 24 24 20 19 14 8 359 349 348 350 348 343
166 166 165 166 167 160 144 137 129 111 96 81 65 54 52 37 31 29 26 25 35 36 28 26 28 32 34 31 23 31 25 23 20 19 19 16 9 360 352 359 6 359 353
172 168 163 164 166 152 138 131 117 111 111 113 94 70 58 37 46 52 38 31 37 42 44 41 34 29 33 36 23 17 29 16 12 25 18 6 10 2 357 3 360 358 351
171 162 159 165 157 152 153 149 140 135 119 94 67 52 56 59 59 60 46 39 41 42 43 42 34 32 32 25 15 16 7 17 19 14 4 355 11 4 355 351 352 355 350
170 163 163 161 156 156 165 157 139 144 113 73 58 54 52 55 58 57 57 53 49 48 38 27 28 28 26 21 11 2 5 13 8 3 358 5 8 359 349 347 347 352 352
171 163 162 159 158 158 172 167 139 96 81 55 61 66 58 65 55 58 74 66 56 53 43 38 33 27 27 19 11 8 8 9 8 5 5 4 359 353 354 354 357 349 344
174 170 165 163 166 172 176 165 130 116 76 45 85 65 48 59 50 42 47 48 49 41 41 38 33 30 20 19 16 18 16 14 13 11 8 5 360 358 356 351 346 341 337
174 175 174 176 174 171 171 173 156 139 122 72 114 109 72 31 41 38 51 56 41 30 30 24 22 19 18 14 14 18 19 16 16 13 7 359 354 352 348 342 339 336 331
180 179 178 176 177 178 180 181 171 163 144 99 101 138 148 191 269 296 308 31 36 27 18 6 15 13 26 29 15 358 20 17 14 5 358 353 348 345 342 338 336 330 324
181 178 176 175 176 176 174 173 175 178 142 145 119 71 92 137 154 184 302 334 2 14 355 331 333 350 69 95 61 31 19 14 2 355 352 348 345 340 336 332 327 322 320
181 179 176 173 175 175 172 169 176 178 166 158 156 145 95 60 82 136 218 319 345 339 330 320 323 342 22 95 71 25 20 0 353 350 345 343 340 334 331 327 323 319 314
180 184 178 179 178 175 173 175 175 179 180 166 162 164 160 161 175 160 177 234 283 303 317 325 336 22 60 52 34 30 2 350 347 344 341 339 335 331 328 324 320 315 311
188 193 185 181 178 178 174 167 170 181 175 177 175 177 168 157 145 140 135 147 252 299 309 320 354 116 101 105 34 12 348 341 337 337 337 336 333 330 328 323 318 314 310
188 178 182 183 181 175 171 168 168 171 171 177 174 168 157 156 146 146 151 146 161 283 270 243 154 101 93 86 13 356 320 324 325 333 334 332 330 328 326 322 318 314 310
178 171 181 183 182 178 173 169 173 169 168 173 171 163 154 159 148 136 132 144 144 195 254 226 200 166 140 123 350 341 309 315 325 327 328 328 327 326 325 323 319 315 310
175 173 181 185 180 182 178 172 172 165 165 173 169 166 162 152 146 139 144 132 117 141 247 306 307 28 22 3 344 335 315 317 313 316 318 319 321 323 324 322 318 313 310
181 178 182 184 183 182 182 180 177 171 176 175 171 169 167 153 148 147 142 146 150 147 211 312 331 349 355 351 330 314 304 297 297 305 308 310 313 320 319 317 313 311 307
188 184 183 185 188 187 184 184 181 179 180 180 175 170 167 155 151 157 158 162 161 162 155 256 318 329 311 315 301 287 273 260 255 269 287 299 308 311 313 311 310 308 305
196 190 187 189 191 191 188 188 186 180 183 186 179 173 168 161 167 172 166 160 157 162 164 183 237 282 282 286 286 278 267 261 252 270 279 285 290 296 300 302 305 304 300
198 198 194 192 193 193 192 190 185 181 181 182 179 176 172 174 171 167 164 164 159 164 162 187 220 249 261 266 272 296 308 313 304 283 281 286 294 293 291 291 294 292 290
199 197 197 195 192 192 194 191 188 182 178 177 177 178 178 173 170 170 170 168 163 159 156 164 200 229 270 317 334 333 329 328 316 299 309 317 303 287 279 283 283 283 282
203 199 200 195 194 195 196 194 188 181 179 179 175 174 174 172 179 181 181 180 175 166 153 159 182 209 289 340 335 341 331 333 342 3 335 319 307 290 282 279 281 281 282
204 205 206 200 198 198 199 196 193 185 179 179 172 169 167 169 171 175 183 185 188 188 179 172 179 185 167 288 310 317 323 321 317 322 318 300 293 280 283 285 289 288 285
207 205 206 203 201 199 198 194 190 185 180 178 174 176 174 169 174 174 175 182 186 192 188 177 161 175 199 252 252 298 346 330 311 305 300 291 299 286 285 279 286 287 285
218 219 211 203 205 203 196 187 182 186 184 177 170 171 170 167 179 179 169 170 177 187 198 204 205 220 242 305 325 345 347 334 314 301 289 283 300 299 290 279 276 285 290
223 223 220 202 205 202 193 187 181 181 180 173 167 170 171 172 181 183 173 168 173 181 180 170 166 351 11 322 310 307 237 247 285 293 338 329 305 316 306 278 290 297 296